Time,TemperatureF,DewpointF,PressureIn,WindDirection,WindDirectionDegrees,WindSpeedMPH,WindSpeedGustMPH,Humidity,HourlyPrecipIn,Conditions,Clouds,dailyrainin,SoftwareType,DateUTC
2013-02-22 00:04:00,34.3,11.4,25.21,NE,46,14.0,-999.0,38,-99.99,,,-99.99,dwt +perl,2013-02-22 08:04:00,
2013-02-22 00:09:00,34.3,11.4,25.21,NNE,25,12.0,-999.0,38,-99.99,,,-99.99,dwt +perl,2013-02-22 08:09:00,
2013-02-22 00:14:00,34.2,11.9,25.21,NE,47,11.0,-999.0,39,-99.99,,,-99.99,dwt +perl,2013-02-22 08:14:00,
2013-02-22 00:19:00,34.3,11.9,25.21,NE,36,12.0,-999.0,39,-99.99,,,-99.99,dwt +perl,2013-02-22 08:19:00,
2013-02-22 00:24:00,34.2,13.0,25.21,NE,42,16.0,-999.0,41,-99.99,,,-99.99,dwt +perl,2013-02-22 08:24:00,
2013-02-22 00:29:00,34.0,12.2,25.21,NE,47,13.0,-999.0,40,-99.99,,,-99.99,dwt +perl,2013-02-22 08:29:00,
2013-02-22 00:34:00,34.1,13.4,25.21,NE,35,11.0,-999.0,42,-99.99,,,-99.99,dwt +perl,2013-02-22 08:34:00,
2013-02-22 00:39:00,34.2,11.3,25.21,NE,50,17.0,-999.0,38,-99.99,,,-99.99,dwt +perl,2013-02-22 08:39:00,
2013-02-22 00:44:00,34.2,11.3,25.21,NE,43,11.0,-999.0,38,-99.99,,,-99.99,dwt +perl,2013-02-22 08:44:00,
2013-02-22 00:49:00,34.3,10.8,25.21,NE,45,14.0,-999.0,37,-99.99,,,-99.99,dwt +perl,2013-02-22 08:49:00,
2013-02-22 00:54:00,34.3,10.1,25.21,NE,35,8.0,-999.0,36,-99.99,,,-99.99,dwt +perl,2013-02-22 08:54:00,
2013-02-22 00:59:00,34.4,10.9,25.21,NE,50,11.0,-999.0,37,-99.99,,,-99.99,dwt +perl,2013-02-22 08:59:00,
2013-02-22 01:04:00,34.5,8.4,25.21,NE,41,16.0,-999.0,33,-99.99,,,-99.99,dwt +perl,2013-02-22 09:04:00,
2013-02-22 01:09:00,34.7,8.6,25.21,NE,39,15.0,-999.0,33,-99.99,,,-99.99,dwt +perl,2013-02-22 09:09:00,
2013-02-22 01:14:00,34.6,8.5,25.21,NE,42,12.0,-999.0,33,-99.99,,,-99.99,dwt +perl,2013-02-22 09:14:00,
2013-02-22 01:19:00,34.5,7.7,25.21,NE,35,13.0,-999.0,32,-99.99,,,-99.99,dwt +perl,2013-02-22 09:19:00,
2013-02-22 01:24:00,34.7,7.2,25.21,ENE,58,14.0,-999.0,31,-99.99,,,-99.99,dwt +perl,2013-02-22 09:24:00,
2013-02-22 01:29:00,34.6,7.1,25.22,NE,44,11.0,-999.0,31,-99.99,,,-99.99,dwt +perl,2013-02-22 09:29:00,
2013-02-22 01:34:00,34.7,6.5,25.21,NE,41,11.0,-999.0,30,-99.99,,,-99.99,dwt +perl,2013-02-22 09:34:00,
2013-02-22 01:39:00,34.7,5.7,25.22,NE,34,10.0,-999.0,29,-99.99,,,-99.99,dwt +perl,2013-02-22 09:39:00,
2013-02-22 01:44:00,34.5,8.4,25.21,NE,50,12.0,-999.0,33,-99.99,,,-99.99,dwt +perl,2013-02-22 09:44:00,
2013-02-22 01:49:00,34.4,8.3,25.21,NE,43,10.0,-999.0,33,-99.99,,,-99.99,dwt +perl,2013-02-22 09:49:00,
2013-02-22 01:54:00,34.2,8.8,25.21,NE,35,10.0,-999.0,34,-99.99,,,-99.99,dwt +perl,2013-02-22 09:54:00,
2013-02-22 01:59:00,34.1,8.7,25.22,NE,47,7.0,-999.0,34,-99.99,,,-99.99,dwt +perl,2013-02-22 09:59:00,
2013-02-22 02:04:00,34.2,8.8,25.21,NE,37,13.0,-999.0,34,-99.99,,,-99.99,dwt +perl,2013-02-22 10:04:00,
2013-02-22 02:09:00,34.3,8.9,25.21,NE,40,9.0,-999.0,34,-99.99,,,-99.99,dwt +perl,2013-02-22 10:09:00,
2013-02-22 02:14:00,34.3,9.5,25.21,NE,39,11.0,-999.0,35,-99.99,,,-99.99,dwt +perl,2013-02-22 10:14:00,
2013-02-22 02:19:00,34.2,9.4,25.21,NE,45,9.0,-999.0,35,-99.99,,,-99.99,dwt +perl,2013-02-22 10:19:00,
2013-02-22 02:24:00,34.3,9.5,25.21,NE,52,7.0,-999.0,35,-99.99,,,-99.99,dwt +perl,2013-02-22 10:24:00,
2013-02-22 02:29:00,34.1,10.0,25.21,ENE,58,11.0,-999.0,36,-99.99,,,-99.99,dwt +perl,2013-02-22 10:29:00,
2013-02-22 02:34:00,34.2,10.1,25.21,NE,39,8.0,-999.0,36,-99.99,,,-99.99,dwt +perl,2013-02-22 10:34:00,
2013-02-22 02:39:00,34.2,9.4,25.21,NE,42,9.0,-999.0,35,-99.99,,,-99.99,dwt +perl,2013-02-22 10:39:00,
2013-02-22 02:44:00,34.2,10.7,25.20,NE,50,8.0,-999.0,37,-99.99,,,-99.99,dwt +perl,2013-02-22 10:44:00,
2013-02-22 02:49:00,34.1,10.0,25.20,NE,49,11.0,-999.0,36,-99.99,,,-99.99,dwt +perl,2013-02-22 10:49:00,
2013-02-22 02:54:00,34.1,10.0,25.20,NNE,29,13.0,-999.0,36,-99.99,,,-99.99,dwt +perl,2013-02-22 10:54:00,
2013-02-22 02:59:00,34.1,10.0,25.20,NE,35,9.0,-999.0,36,-99.99,,,-99.99,dwt +perl,2013-02-22 10:59:00,
2013-02-22 03:04:00,33.9,10.4,25.20,NE,39,9.0,-999.0,37,-99.99,,,-99.99,dwt +perl,2013-02-22 11:04:00,
2013-02-22 03:09:00,33.9,9.2,25.20,ENE,63,10.0,-999.0,35,-99.99,,,-99.99,dwt +perl,2013-02-22 11:09:00,
2013-02-22 03:14:00,34.1,10.0,25.20,NE,46,9.0,-999.0,36,-99.99,,,-99.99,dwt +perl,2013-02-22 11:14:00,
2013-02-22 03:19:00,34.0,9.2,25.20,NNE,33,8.0,-999.0,35,-99.99,,,-99.99,dwt +perl,2013-02-22 11:19:00,
2013-02-22 03:24:00,34.0,9.9,25.20,ENE,57,14.0,-999.0,36,-99.99,,,-99.99,dwt +perl,2013-02-22 11:24:00,
2013-02-22 03:29:00,34.1,10.0,25.20,NNE,31,8.0,-999.0,36,-99.99,,,-99.99,dwt +perl,2013-02-22 11:29:00,
2013-02-22 03:34:00,34.2,8.1,25.20,NNE,33,7.0,-999.0,33,-99.99,,,-99.99,dwt +perl,2013-02-22 11:34:00,
2013-02-22 03:39:00,34.1,9.3,25.20,NE,37,7.0,-999.0,35,-99.99,,,-99.99,dwt +perl,2013-02-22 11:39:00,
2013-02-22 03:44:00,34.0,9.9,25.20,NE,43,7.0,-999.0,36,-99.99,,,-99.99,dwt +perl,2013-02-22 11:44:00,
2013-02-22 03:49:00,34.0,9.9,25.20,NE,47,7.0,-999.0,36,-99.99,,,-99.99,dwt +perl,2013-02-22 11:49:00,
2013-02-22 03:54:00,34.0,9.9,25.20,NNE,32,10.0,-999.0,36,-99.99,,,-99.99,dwt +perl,2013-02-22 11:54:00,
2013-02-22 03:59:00,33.9,10.4,25.20,NE,37,7.0,-999.0,37,-99.99,,,-99.99,dwt +perl,2013-02-22 11:59:00,
2013-02-22 04:04:00,34.0,9.9,25.20,NNE,18,12.0,-999.0,36,-99.99,,,-99.99,dwt +perl,2013-02-22 12:04:00,
2013-02-22 04:09:00,34.3,9.5,25.20,NNE,33,8.0,-999.0,35,-99.99,,,-99.99,dwt +perl,2013-02-22 12:09:00,
2013-02-22 04:14:00,34.1,10.0,25.20,NE,34,6.0,-999.0,36,-99.99,,,-99.99,dwt +perl,2013-02-22 12:14:00,
2013-02-22 04:19:00,34.3,10.1,25.20,NNE,26,9.0,-999.0,36,-99.99,,,-99.99,dwt +perl,2013-02-22 12:19:00,
2013-02-22 04:24:00,34.5,9.1,25.19,NNE,21,14.0,-999.0,34,-99.99,,,-99.99,dwt +perl,2013-02-22 12:24:00,
2013-02-22 04:29:00,34.9,8.8,25.20,North,354,16.0,-999.0,33,-99.99,,,-99.99,dwt +perl,2013-02-22 12:29:00,
2013-02-22 04:34:00,34.9,9.4,25.20,NNE,27,7.0,-999.0,34,-99.99,,,-99.99,dwt +perl,2013-02-22 12:34:00,
2013-02-22 04:39:00,34.8,9.3,25.20,NNE,24,11.0,-999.0,34,-99.99,,,-99.99,dwt +perl,2013-02-22 12:39:00,
2013-02-22 04:44:00,34.9,10.1,25.20,NE,37,9.0,-999.0,35,-99.99,,,-99.99,dwt +perl,2013-02-22 12:44:00,
2013-02-22 04:49:00,34.8,11.2,25.20,NNE,33,20.0,-999.0,37,-99.99,,,-99.99,dwt +perl,2013-02-22 12:49:00,
2013-02-22 04:54:00,34.7,12.9,25.20,NNE,14,17.0,-999.0,40,-99.99,,,-99.99,dwt +perl,2013-02-22 12:54:00,
2013-02-22 04:59:00,34.5,13.8,25.20,NE,41,11.0,-999.0,42,-99.99,,,-99.99,dwt +perl,2013-02-22 12:59:00,
2013-02-22 05:04:00,34.5,15.4,25.21,NNE,29,11.0,-999.0,45,-99.99,,,-99.99,dwt +perl,2013-02-22 13:04:00,
2013-02-22 05:09:00,34.3,15.7,25.21,NE,54,9.0,-999.0,46,-99.99,,,-99.99,dwt +perl,2013-02-22 13:09:00,
2013-02-22 05:14:00,34.5,16.4,25.21,NNE,33,10.0,-999.0,47,-99.99,,,-99.99,dwt +perl,2013-02-22 13:14:00,
2013-02-22 05:19:00,34.3,17.1,25.21,NE,43,9.0,-999.0,49,-99.99,,,-99.99,dwt +perl,2013-02-22 13:19:00,
2013-02-22 05:24:00,34.3,17.1,25.21,NNE,23,11.0,-999.0,49,-99.99,,,-99.99,dwt +perl,2013-02-22 13:24:00,
2013-02-22 05:29:00,34.2,17.5,25.21,NE,36,16.0,-999.0,50,-99.99,,,-99.99,dwt +perl,2013-02-22 13:29:00,
2013-02-22 05:34:00,34.1,17.9,25.21,NE,48,9.0,-999.0,51,-99.99,,,-99.99,dwt +perl,2013-02-22 13:34:00,
2013-02-22 05:39:00,34.1,18.3,25.21,NNE,26,13.0,-999.0,52,-99.99,,,-99.99,dwt +perl,2013-02-22 13:39:00,
2013-02-22 05:44:00,34.0,18.7,25.21,NNE,27,7.0,-999.0,53,-99.99,,,-99.99,dwt +perl,2013-02-22 13:44:00,
2013-02-22 05:49:00,34.1,19.2,25.21,NE,54,10.0,-999.0,54,-99.99,,,-99.99,dwt +perl,2013-02-22 13:49:00,
2013-02-22 05:54:00,33.9,19.5,25.21,NE,48,8.0,-999.0,55,-99.99,,,-99.99,dwt +perl,2013-02-22 13:54:00,
2013-02-22 05:59:00,33.9,19.5,25.21,NE,39,13.0,-999.0,55,-99.99,,,-99.99,dwt +perl,2013-02-22 13:59:00,
2013-02-22 06:04:00,34.0,19.1,25.21,NE,35,12.0,-999.0,54,-99.99,,,-99.99,dwt +perl,2013-02-22 14:04:00,
2013-02-22 06:09:00,34.0,19.1,25.21,NNE,25,9.0,-999.0,54,-99.99,,,-99.99,dwt +perl,2013-02-22 14:09:00,
2013-02-22 06:14:00,33.8,19.4,25.21,NE,52,8.0,-999.0,55,-99.99,,,-99.99,dwt +perl,2013-02-22 14:14:00,
2013-02-22 06:19:00,33.8,18.9,25.21,NE,43,10.0,-999.0,54,-99.99,,,-99.99,dwt +perl,2013-02-22 14:19:00,
2013-02-22 06:24:00,33.8,18.9,25.21,NNE,33,8.0,-999.0,54,-99.99,,,-99.99,dwt +perl,2013-02-22 14:24:00,
2013-02-22 06:29:00,33.9,18.6,25.22,NE,46,7.0,-999.0,53,-99.99,,,-99.99,dwt +perl,2013-02-22 14:29:00,
2013-02-22 06:34:00,34.0,19.1,25.22,NNE,20,13.0,-999.0,54,-99.99,,,-99.99,dwt +perl,2013-02-22 14:34:00,
2013-02-22 06:39:00,34.0,19.1,25.22,ENE,57,8.0,-999.0,54,-99.99,,,-99.99,dwt +perl,2013-02-22 14:39:00,
2013-02-22 06:44:00,33.9,19.0,25.22,NNE,24,9.0,-999.0,54,-99.99,,,-99.99,dwt +perl,2013-02-22 14:44:00,
2013-02-22 06:49:00,34.1,18.8,25.22,NNE,23,12.0,-999.0,53,-99.99,,,-99.99,dwt +perl,2013-02-22 14:49:00,
2013-02-22 06:54:00,34.2,18.9,25.22,NE,41,8.0,-999.0,53,-99.99,,,-99.99,dwt +perl,2013-02-22 14:54:00,
2013-02-22 06:59:00,34.2,19.3,25.22,NNE,21,11.0,-999.0,54,-99.99,,,-99.99,dwt +perl,2013-02-22 14:59:00,
2013-02-22 07:04:00,34.2,18.9,25.22,NE,42,12.0,-999.0,53,-99.99,,,-99.99,dwt +perl,2013-02-22 15:04:00,
2013-02-22 07:09:00,34.3,19.0,25.23,NE,49,11.0,-999.0,53,-99.99,,,-99.99,dwt +perl,2013-02-22 15:09:00,
2013-02-22 07:14:00,34.4,19.1,25.23,NE,43,8.0,-999.0,53,-99.99,,,-99.99,dwt +perl,2013-02-22 15:14:00,
2013-02-22 07:19:00,34.6,19.2,25.23,NNE,29,10.0,-999.0,53,-99.99,,,-99.99,dwt +perl,2013-02-22 15:19:00,
2013-02-22 07:24:00,34.6,18.8,25.24,NE,37,6.0,-999.0,52,-99.99,,,-99.99,dwt +perl,2013-02-22 15:24:00,
2013-02-22 07:29:00,34.8,19.4,25.24,NNE,29,9.0,-999.0,53,-99.99,,,-99.99,dwt +perl,2013-02-22 15:29:00,
2013-02-22 07:34:00,35.0,19.6,25.24,NE,35,6.0,-999.0,53,-99.99,,,-99.99,dwt +perl,2013-02-22 15:34:00,
2013-02-22 07:39:00,35.1,19.3,25.24,NE,37,7.0,-999.0,52,-99.99,,,-99.99,dwt +perl,2013-02-22 15:39:00,
2013-02-22 07:44:00,35.3,19.5,25.24,NE,36,7.0,-999.0,52,-99.99,,,-99.99,dwt +perl,2013-02-22 15:44:00,
2013-02-22 07:54:00,36.0,20.5,25.24,NE,42,8.0,-999.0,53,-99.99,,,-99.99,dwt +perl,2013-02-22 15:54:00,
2013-02-22 07:59:00,36.4,20.9,25.24,NE,50,11.0,-999.0,53,-99.99,,,-99.99,dwt +perl,2013-02-22 15:59:00,
2013-02-22 08:04:00,36.6,21.1,25.24,ENE,58,9.0,-999.0,53,-99.99,,,-99.99,dwt +perl,2013-02-22 16:04:00,
2013-02-22 08:09:00,36.7,20.8,25.24,NE,41,7.0,-999.0,52,-99.99,,,-99.99,dwt +perl,2013-02-22 16:09:00,
2013-02-22 08:14:00,36.8,21.3,25.24,NE,45,7.0,-999.0,53,-99.99,,,-99.99,dwt +perl,2013-02-22 16:14:00,
2013-02-22 08:19:00,37.1,21.6,25.25,NNE,32,7.0,-999.0,53,-99.99,,,-99.99,dwt +perl,2013-02-22 16:19:00,
2013-02-22 08:24:00,37.3,21.8,25.24,NE,52,11.0,-999.0,53,-99.99,,,-99.99,dwt +perl,2013-02-22 16:24:00,
2013-02-22 08:29:00,37.5,21.9,25.24,NE,52,10.0,-999.0,53,-99.99,,,-99.99,dwt +perl,2013-02-22 16:29:00,
2013-02-22 08:34:00,37.6,22.5,25.25,NNE,32,11.0,-999.0,54,-99.99,,,-99.99,dwt +perl,2013-02-22 16:34:00,
2013-02-22 08:39:00,37.7,22.1,25.25,ENE,62,13.0,-999.0,53,-99.99,,,-99.99,dwt +perl,2013-02-22 16:39:00,
2013-02-22 08:44:00,37.9,21.9,25.25,ENE,72,10.0,-999.0,52,-99.99,,,-99.99,dwt +perl,2013-02-22 16:44:00,
2013-02-22 08:49:00,38.0,22.0,25.25,NNE,30,6.0,-999.0,52,-99.99,,,-99.99,dwt +perl,2013-02-22 16:49:00,
2013-02-22 08:54:00,38.3,22.7,25.25,North,10,2.0,-999.0,53,-99.99,,,-99.99,dwt +perl,2013-02-22 16:54:00,
2013-02-22 08:59:00,38.7,22.1,25.25,NNE,33,6.0,-999.0,51,-99.99,,,-99.99,dwt +perl,2013-02-22 16:59:00,
2013-02-22 09:04:00,38.8,22.7,25.25,NE,48,8.0,-999.0,52,-99.99,,,-99.99,dwt +perl,2013-02-22 17:04:00,
2013-02-22 09:09:00,39.1,23.4,25.25,NE,44,4.0,-999.0,53,-99.99,,,-99.99,dwt +perl,2013-02-22 17:09:00,
2013-02-22 09:14:00,39.1,22.5,25.25,NE,52,6.0,-999.0,51,-99.99,,,-99.99,dwt +perl,2013-02-22 17:14:00,
2013-02-22 09:19:00,39.2,23.1,25.25,ENE,59,8.0,-999.0,52,-99.99,,,-99.99,dwt +perl,2013-02-22 17:19:00,
2013-02-22 09:24:00,39.3,22.7,25.25,NE,46,6.0,-999.0,51,-99.99,,,-99.99,dwt +perl,2013-02-22 17:24:00,
2013-02-22 09:29:00,39.4,23.2,25.26,NE,40,3.0,-999.0,52,-99.99,,,-99.99,dwt +perl,2013-02-22 17:29:00,
2013-02-22 09:34:00,39.8,23.2,25.25,NNW,348,7.0,-999.0,51,-99.99,,,-99.99,dwt +perl,2013-02-22 17:34:00,
2013-02-22 09:39:00,39.6,23.0,25.25,NE,43,3.0,-999.0,51,-99.99,,,-99.99,dwt +perl,2013-02-22 17:39:00,
2013-02-22 09:44:00,39.8,24.1,25.25,NE,34,5.0,-999.0,53,-99.99,,,-99.99,dwt +perl,2013-02-22 17:44:00,
2013-02-22 09:49:00,40.2,24.0,25.25,NNE,21,4.0,-999.0,52,-99.99,,,-99.99,dwt +perl,2013-02-22 17:49:00,
2013-02-22 09:54:00,40.0,23.4,25.26,NE,47,4.0,-999.0,51,-99.99,,,-99.99,dwt +perl,2013-02-22 17:54:00,
2013-02-22 09:59:00,40.0,23.8,25.26,NE,46,3.0,-999.0,52,-99.99,,,-99.99,dwt +perl,2013-02-22 17:59:00,
2013-02-22 10:04:00,40.2,23.5,25.26,NNW,328,0.0,-999.0,51,-99.99,,,-99.99,dwt +perl,2013-02-22 18:04:00,
2013-02-22 10:09:00,40.5,24.3,25.26,NE,43,4.0,-999.0,52,-99.99,,,-99.99,dwt +perl,2013-02-22 18:09:00,
2013-02-22 10:14:00,40.6,24.4,25.26,WNW,299,5.0,-999.0,52,-99.99,,,-99.99,dwt +perl,2013-02-22 18:14:00,
2013-02-22 10:19:00,40.3,24.1,25.26,NE,43,7.0,-999.0,52,-99.99,,,-99.99,dwt +perl,2013-02-22 18:19:00,
2013-02-22 10:24:00,40.5,24.7,25.26,NE,35,7.0,-999.0,53,-99.99,,,-99.99,dwt +perl,2013-02-22 18:24:00,
2013-02-22 10:29:00,40.9,25.1,25.26,NNE,33,5.0,-999.0,53,-99.99,,,-99.99,dwt +perl,2013-02-22 18:29:00,
2013-02-22 10:34:00,41.0,25.2,25.26,ENE,61,4.0,-999.0,53,-99.99,,,-99.99,dwt +perl,2013-02-22 18:34:00,
2013-02-22 10:39:00,41.0,25.2,25.26,NNE,22,4.0,-999.0,53,-99.99,,,-99.99,dwt +perl,2013-02-22 18:39:00,
2013-02-22 10:44:00,40.9,26.0,25.26,NE,48,0.0,-999.0,55,-99.99,,,-99.99,dwt +perl,2013-02-22 18:44:00,
2013-02-22 10:49:00,41.6,26.2,25.26,NE,34,3.0,-999.0,54,-99.99,,,-99.99,dwt +perl,2013-02-22 18:49:00,
2013-02-22 10:54:00,41.8,25.9,25.26,NNE,30,0.0,-999.0,53,-99.99,,,-99.99,dwt +perl,2013-02-22 18:54:00,
2013-02-22 10:59:00,42.0,26.6,25.26,NE,53,4.0,-999.0,54,-99.99,,,-99.99,dwt +perl,2013-02-22 18:59:00,
2013-02-22 11:04:00,42.1,26.2,25.26,NE,42,2.0,-999.0,53,-99.99,,,-99.99,dwt +perl,2013-02-22 19:04:00,
2013-02-22 11:09:00,41.7,25.8,25.26,NE,42,5.0,-999.0,53,-99.99,,,-99.99,dwt +perl,2013-02-22 19:09:00,
2013-02-22 11:14:00,41.7,26.3,25.26,ENE,61,1.0,-999.0,54,-99.99,,,-99.99,dwt +perl,2013-02-22 19:14:00,
2013-02-22 11:19:00,42.2,26.3,25.26,NE,39,2.0,-999.0,53,-99.99,,,-99.99,dwt +perl,2013-02-22 19:19:00,
2013-02-22 11:24:00,42.9,26.0,25.26,NNE,31,4.0,-999.0,51,-99.99,,,-99.99,dwt +perl,2013-02-22 19:24:00,
2013-02-22 11:29:00,43.1,26.2,25.26,NNE,23,5.0,-999.0,51,-99.99,,,-99.99,dwt +perl,2013-02-22 19:29:00,
2013-02-22 11:34:00,42.8,25.9,25.26,NE,35,0.0,-999.0,51,-99.99,,,-99.99,dwt +perl,2013-02-22 19:34:00,
2013-02-22 11:39:00,42.7,27.2,25.26,NNW,347,3.0,-999.0,54,-99.99,,,-99.99,dwt +perl,2013-02-22 19:39:00,
2013-02-22 11:44:00,42.9,26.0,25.27,NNE,23,3.0,-999.0,51,-99.99,,,-99.99,dwt +perl,2013-02-22 19:44:00,
2013-02-22 11:49:00,43.0,26.6,25.27,North,4,1.0,-999.0,52,-99.99,,,-99.99,dwt +perl,2013-02-22 19:49:00,
2013-02-22 11:54:00,43.4,26.0,25.27,NW,320,6.0,-999.0,50,-99.99,,,-99.99,dwt +perl,2013-02-22 19:54:00,
2013-02-22 11:59:00,43.1,26.2,25.27,NNE,26,1.0,-999.0,51,-99.99,,,-99.99,dwt +perl,2013-02-22 19:59:00,
2013-02-22 12:04:00,43.4,27.4,25.27,NE,38,5.0,-999.0,53,-99.99,,,-99.99,dwt +perl,2013-02-22 20:04:00,
2013-02-22 12:09:00,43.0,27.0,25.27,NNE,21,4.0,-999.0,53,-99.99,,,-99.99,dwt +perl,2013-02-22 20:09:00,
2013-02-22 12:14:00,42.8,26.4,25.26,NE,43,6.0,-999.0,52,-99.99,,,-99.99,dwt +perl,2013-02-22 20:14:00,
2013-02-22 12:16:00,42.8,26.9,25.26,NNW,345,1.0,-999.0,53,-99.99,,,-99.99,dwt +perl,2013-02-22 20:16:00,
2013-02-22 12:19:00,42.9,27.0,25.26,North,11,2.0,-999.0,53,-99.99,,,-99.99,dwt +perl,2013-02-22 20:19:00,
2013-02-22 12:24:00,42.8,26.9,25.26,NNW,345,1.0,-999.0,53,-99.99,,,-99.99,dwt +perl,2013-02-22 20:24:00,
2013-02-22 12:34:00,42.7,26.3,25.26,NNW,340,4.0,-999.0,52,-99.99,,,-99.99,dwt +perl,2013-02-22 20:34:00,
2013-02-22 12:39:00,42.3,25.9,25.25,NE,39,8.0,-999.0,52,-99.99,,,-99.99,dwt +perl,2013-02-22 20:39:00,
2013-02-22 12:44:00,42.7,27.2,25.26,NNE,30,4.0,-999.0,54,-99.99,,,-99.99,dwt +perl,2013-02-22 20:44:00,
2013-02-22 12:49:00,42.8,25.9,25.25,NE,41,8.0,-999.0,51,-99.99,,,-99.99,dwt +perl,2013-02-22 20:49:00,
2013-02-22 12:54:00,43.1,26.2,25.25,NNE,27,6.0,-999.0,51,-99.99,,,-99.99,dwt +perl,2013-02-22 20:54:00,
2013-02-22 12:59:00,42.3,25.0,25.25,NW,321,11.0,-999.0,50,-99.99,,,-99.99,dwt +perl,2013-02-22 20:59:00,
2013-02-22 13:04:00,42.2,26.3,25.25,NNE,18,2.0,-999.0,53,-99.99,,,-99.99,dwt +perl,2013-02-22 21:04:00,
2013-02-22 13:09:00,42.5,25.2,25.24,NNW,328,6.0,-999.0,50,-99.99,,,-99.99,dwt +perl,2013-02-22 21:09:00,
2013-02-22 13:14:00,42.7,26.3,25.24,WNW,291,5.0,-999.0,52,-99.99,,,-99.99,dwt +perl,2013-02-22 21:14:00,
2013-02-22 13:19:00,42.5,26.1,25.24,NNW,337,8.0,-999.0,52,-99.99,,,-99.99,dwt +perl,2013-02-22 21:19:00,
2013-02-22 13:24:00,42.4,27.4,25.24,North,4,5.0,-999.0,55,-99.99,,,-99.99,dwt +perl,2013-02-22 21:24:00,
2013-02-22 13:29:00,43.0,28.0,25.24,WSW,256,3.0,-999.0,55,-99.99,,,-99.99,dwt +perl,2013-02-22 21:29:00,
2013-02-22 13:34:00,43.5,28.0,25.24,NW,315,4.0,-999.0,54,-99.99,,,-99.99,dwt +perl,2013-02-22 21:34:00,
2013-02-22 13:39:00,42.6,25.3,25.24,NW,314,11.0,-999.0,50,-99.99,,,-99.99,dwt +perl,2013-02-22 21:39:00,
2013-02-22 13:44:00,42.5,26.6,25.24,NNW,327,8.0,-999.0,53,-99.99,,,-99.99,dwt +perl,2013-02-22 21:44:00,
2013-02-22 13:49:00,42.2,25.9,25.23,NNE,25,4.0,-999.0,52,-99.99,,,-99.99,dwt +perl,2013-02-22 21:49:00,
2013-02-22 13:54:00,42.9,27.0,25.23,NNE,27,6.0,-999.0,53,-99.99,,,-99.99,dwt +perl,2013-02-22 21:54:00,
2013-02-22 13:59:00,42.9,24.6,25.23,NNW,329,6.0,-999.0,48,-99.99,,,-99.99,dwt +perl,2013-02-22 21:59:00,
2013-02-22 14:04:00,43.1,25.7,25.23,NNE,15,2.0,-999.0,50,-99.99,,,-99.99,dwt +perl,2013-02-22 22:04:00,
2013-02-22 14:09:00,43.4,24.5,25.23,WSW,239,4.0,-999.0,47,-99.99,,,-99.99,dwt +perl,2013-02-22 22:09:00,
2013-02-22 14:14:00,43.7,25.8,25.23,NW,311,10.0,-999.0,49,-99.99,,,-99.99,dwt +perl,2013-02-22 22:14:00,
2013-02-22 14:19:00,43.4,27.0,25.23,NE,45,2.0,-999.0,52,-99.99,,,-99.99,dwt +perl,2013-02-22 22:19:00,
2013-02-22 14:24:00,43.6,26.7,25.23,WNW,294,7.0,-999.0,51,-99.99,,,-99.99,dwt +perl,2013-02-22 22:24:00,
2013-02-22 14:29:00,42.9,26.5,25.24,NW,323,7.0,-999.0,52,-99.99,,,-99.99,dwt +perl,2013-02-22 22:29:00,
2013-02-22 14:34:00,42.8,27.3,25.24,NW,322,10.0,-999.0,54,-99.99,,,-99.99,dwt +perl,2013-02-22 22:34:00,
2013-02-22 14:39:00,43.1,28.0,25.23,WNW,302,3.0,-999.0,55,-99.99,,,-99.99,dwt +perl,2013-02-22 22:39:00,
2013-02-22 14:44:00,43.3,28.2,25.23,WNW,301,14.0,-999.0,55,-99.99,,,-99.99,dwt +perl,2013-02-22 22:44:00,
2013-02-22 14:49:00,42.8,27.3,25.23,NW,311,4.0,-999.0,54,-99.99,,,-99.99,dwt +perl,2013-02-22 22:49:00,
2013-02-22 14:54:00,42.9,27.4,25.23,West,262,7.0,-999.0,54,-99.99,,,-99.99,dwt +perl,2013-02-22 22:54:00,
2013-02-22 14:59:00,42.3,26.9,25.23,NW,315,9.0,-999.0,54,-99.99,,,-99.99,dwt +perl,2013-02-22 22:59:00,
2013-02-22 15:04:00,41.7,25.8,25.23,NW,316,12.0,-999.0,53,-99.99,,,-99.99,dwt +perl,2013-02-22 23:04:00,
2013-02-22 15:09:00,42.1,26.2,25.23,NW,312,8.0,-999.0,53,-99.99,,,-99.99,dwt +perl,2013-02-22 23:09:00,
2013-02-22 15:14:00,42.7,25.8,25.23,NW,307,5.0,-999.0,51,-99.99,,,-99.99,dwt +perl,2013-02-22 23:14:00,
2013-02-22 15:19:00,42.8,26.4,25.23,NW,305,2.0,-999.0,52,-99.99,,,-99.99,dwt +perl,2013-02-22 23:19:00,
2013-02-22 15:24:00,42.5,26.1,25.23,NNW,327,6.0,-999.0,52,-99.99,,,-99.99,dwt +perl,2013-02-22 23:24:00,
2013-02-22 15:29:00,42.2,26.3,25.23,WNW,303,11.0,-999.0,53,-99.99,,,-99.99,dwt +perl,2013-02-22 23:29:00,
2013-02-22 15:34:00,42.2,26.8,25.23,WNW,301,7.0,-999.0,54,-99.99,,,-99.99,dwt +perl,2013-02-22 23:34:00,
2013-02-22 15:39:00,42.2,25.4,25.24,West,272,5.0,-999.0,51,-99.99,,,-99.99,dwt +perl,2013-02-22 23:39:00,
2013-02-22 15:44:00,42.2,25.4,25.23,NW,312,5.0,-999.0,51,-99.99,,,-99.99,dwt +perl,2013-02-22 23:44:00,
2013-02-22 15:49:00,42.2,26.8,25.23,NW,317,7.0,-999.0,54,-99.99,,,-99.99,dwt +perl,2013-02-22 23:49:00,
2013-02-22 15:54:00,42.5,25.7,25.23,NW,305,8.0,-999.0,51,-99.99,,,-99.99,dwt +perl,2013-02-22 23:54:00,
2013-02-22 15:59:00,42.4,24.6,25.23,NW,314,9.0,-999.0,49,-99.99,,,-99.99,dwt +perl,2013-02-22 23:59:00,
2013-02-22 16:04:00,42.5,24.2,25.23,North,354,3.0,-999.0,48,-99.99,,,-99.99,dwt +perl,2013-02-23 00:04:00,
2013-02-22 16:09:00,42.6,27.1,25.23,SW,232,6.0,-999.0,54,-99.99,,,-99.99,dwt +perl,2013-02-23 00:09:00,
2013-02-22 16:14:00,43.4,28.3,25.23,WSW,253,5.0,-999.0,55,-99.99,,,-99.99,dwt +perl,2013-02-23 00:14:00,
2013-02-22 16:19:00,43.7,25.8,25.23,West,262,3.0,-999.0,49,-99.99,,,-99.99,dwt +perl,2013-02-23 00:19:00,
2013-02-22 16:24:00,44.0,28.4,25.23,NW,323,8.0,-999.0,54,-99.99,,,-99.99,dwt +perl,2013-02-23 00:24:00,
2013-02-22 16:29:00,43.0,26.1,25.23,West,262,5.0,-999.0,51,-99.99,,,-99.99,dwt +perl,2013-02-23 00:29:00,
2013-02-22 16:34:00,43.1,25.2,25.23,WNW,290,6.0,-999.0,49,-99.99,,,-99.99,dwt +perl,2013-02-23 00:34:00,
2013-02-22 16:39:00,43.1,27.1,25.23,West,260,6.0,-999.0,53,-99.99,,,-99.99,dwt +perl,2013-02-23 00:39:00,
2013-02-22 16:44:00,43.0,27.5,25.23,WSW,237,4.0,-999.0,54,-99.99,,,-99.99,dwt +perl,2013-02-23 00:44:00,
2013-02-22 16:49:00,42.8,25.9,25.23,WNW,303,6.0,-999.0,51,-99.99,,,-99.99,dwt +perl,2013-02-23 00:49:00,
2013-02-22 16:54:00,42.3,25.5,25.23,NW,321,9.0,-999.0,51,-99.99,,,-99.99,dwt +perl,2013-02-23 00:54:00,
2013-02-22 16:59:00,41.9,26.5,25.23,NW,309,4.0,-999.0,54,-99.99,,,-99.99,dwt +perl,2013-02-23 00:59:00,
2013-02-22 17:04:00,41.9,25.6,25.23,NW,316,7.0,-999.0,52,-99.99,,,-99.99,dwt +perl,2013-02-23 01:04:00,
2013-02-22 17:09:00,42.0,25.7,25.23,North,8,6.0,-999.0,52,-99.99,,,-99.99,dwt +perl,2013-02-23 01:09:00,
2013-02-22 17:14:00,41.9,25.6,25.23,North,4,4.0,-999.0,52,-99.99,,,-99.99,dwt +perl,2013-02-23 01:14:00,
2013-02-22 17:19:00,41.8,25.9,25.23,NW,318,6.0,-999.0,53,-99.99,,,-99.99,dwt +perl,2013-02-23 01:19:00,
2013-02-22 17:24:00,41.7,25.4,25.23,NE,42,9.0,-999.0,52,-99.99,,,-99.99,dwt +perl,2013-02-23 01:24:00,
2013-02-22 17:29:00,41.5,25.2,25.23,NNW,344,7.0,-999.0,52,-99.99,,,-99.99,dwt +perl,2013-02-23 01:29:00,
2013-02-22 17:34:00,41.2,24.9,25.24,NW,305,7.0,-999.0,52,-99.99,,,-99.99,dwt +perl,2013-02-23 01:34:00,
2013-02-22 17:39:00,40.9,26.0,25.23,ENE,64,5.0,-999.0,55,-99.99,,,-99.99,dwt +perl,2013-02-23 01:39:00,
2013-02-22 17:44:00,41.0,25.6,25.24,NW,309,6.0,-999.0,54,-99.99,,,-99.99,dwt +perl,2013-02-23 01:44:00,
2013-02-22 17:49:00,40.9,25.1,25.24,NNW,327,6.0,-999.0,53,-99.99,,,-99.99,dwt +perl,2013-02-23 01:49:00,
2013-02-22 17:54:00,40.6,23.0,25.24,North,354,13.0,-999.0,49,-99.99,,,-99.99,dwt +perl,2013-02-23 01:54:00,
2013-02-22 17:59:00,40.4,22.8,25.24,NNW,329,7.0,-999.0,49,-99.99,,,-99.99,dwt +perl,2013-02-23 01:59:00,
2013-02-22 18:04:00,40.4,22.3,25.24,North,359,4.0,-999.0,48,-99.99,,,-99.99,dwt +perl,2013-02-23 02:04:00,
2013-02-22 18:09:00,40.2,22.6,25.24,North,10,8.0,-999.0,49,-99.99,,,-99.99,dwt +perl,2013-02-23 02:09:00,
2013-02-22 18:14:00,40.1,23.0,25.24,NNE,14,5.0,-999.0,50,-99.99,,,-99.99,dwt +perl,2013-02-23 02:14:00,
2013-02-22 18:19:00,40.2,22.6,25.24,North,354,9.0,-999.0,49,-99.99,,,-99.99,dwt +perl,2013-02-23 02:19:00,
2013-02-22 18:24:00,40.4,22.8,25.24,NNW,332,5.0,-999.0,49,-99.99,,,-99.99,dwt +perl,2013-02-23 02:24:00,
2013-02-22 18:29:00,40.1,24.4,25.24,WSW,258,7.0,-999.0,53,-99.99,,,-99.99,dwt +perl,2013-02-23 02:29:00,
2013-02-22 18:34:00,39.9,23.2,25.24,NNW,339,6.0,-999.0,51,-99.99,,,-99.99,dwt +perl,2013-02-23 02:34:00,
2013-02-22 18:39:00,40.3,22.2,25.25,NNW,336,15.0,-999.0,48,-99.99,,,-99.99,dwt +perl,2013-02-23 02:39:00,
2013-02-22 18:44:00,41.1,22.4,25.24,NW,321,13.0,-999.0,47,-99.99,,,-99.99,dwt +perl,2013-02-23 02:44:00,
2013-02-22 18:49:00,41.0,21.8,25.24,WNW,303,16.0,-999.0,46,-99.99,,,-99.99,dwt +perl,2013-02-23 02:49:00,
2013-02-22 18:54:00,41.2,21.5,25.24,NNW,338,8.0,-999.0,45,-99.99,,,-99.99,dwt +perl,2013-02-23 02:54:00,
2013-02-22 18:59:00,41.2,22.0,25.24,NW,314,10.0,-999.0,46,-99.99,,,-99.99,dwt +perl,2013-02-23 02:59:00,
2013-02-22 19:04:00,41.2,22.0,25.24,NNE,20,8.0,-999.0,46,-99.99,,,-99.99,dwt +perl,2013-02-23 03:04:00,
2013-02-22 19:09:00,40.9,22.7,25.24,NE,38,4.0,-999.0,48,-99.99,,,-99.99,dwt +perl,2013-02-23 03:09:00,
2013-02-22 19:14:00,40.7,23.0,25.24,NNW,327,15.0,-999.0,49,-99.99,,,-99.99,dwt +perl,2013-02-23 03:14:00,
2013-02-22 19:19:00,40.6,23.4,25.24,NNE,31,4.0,-999.0,50,-99.99,,,-99.99,dwt +perl,2013-02-23 03:19:00,
2013-02-22 19:24:00,40.9,23.2,25.24,NW,324,12.0,-999.0,49,-99.99,,,-99.99,dwt +perl,2013-02-23 03:24:00,
2013-02-22 19:29:00,41.1,22.9,25.24,NNW,347,7.0,-999.0,48,-99.99,,,-99.99,dwt +perl,2013-02-23 03:29:00,
2013-02-22 19:34:00,41.3,22.1,25.25,NW,326,15.0,-999.0,46,-99.99,,,-99.99,dwt +perl,2013-02-23 03:34:00,
2013-02-22 19:39:00,41.3,21.6,25.24,NE,36,9.0,-999.0,45,-99.99,,,-99.99,dwt +perl,2013-02-23 03:39:00,
2013-02-22 19:44:00,41.6,22.4,25.24,NNE,25,8.0,-999.0,46,-99.99,,,-99.99,dwt +perl,2013-02-23 03:44:00,
2013-02-22 19:49:00,41.7,21.4,25.24,NW,322,11.0,-999.0,44,-99.99,,,-99.99,dwt +perl,2013-02-23 03:49:00,
2013-02-22 19:54:00,41.7,20.9,25.24,NNW,334,10.0,-999.0,43,-99.99,,,-99.99,dwt +perl,2013-02-23 03:54:00,
2013-02-22 19:59:00,41.8,22.0,25.23,NNW,341,8.0,-999.0,45,-99.99,,,-99.99,dwt +perl,2013-02-23 03:59:00,
2013-02-22 20:04:00,42.1,23.3,25.23,NW,322,13.0,-999.0,47,-99.99,,,-99.99,dwt +perl,2013-02-23 04:04:00,
2013-02-22 20:09:00,42.4,23.6,25.24,NW,322,20.0,-999.0,47,-99.99,,,-99.99,dwt +perl,2013-02-23 04:09:00,
2013-02-22 20:14:00,42.2,22.4,25.24,NW,310,15.0,-999.0,45,-99.99,,,-99.99,dwt +perl,2013-02-23 04:14:00,
2013-02-22 20:19:00,42.2,22.4,25.24,NW,319,16.0,-999.0,45,-99.99,,,-99.99,dwt +perl,2013-02-23 04:19:00,
2013-02-22 20:24:00,41.9,22.6,25.24,NNW,336,12.0,-999.0,46,-99.99,,,-99.99,dwt +perl,2013-02-23 04:24:00,
2013-02-22 20:29:00,41.7,24.0,25.24,WNW,303,16.0,-999.0,49,-99.99,,,-99.99,dwt +perl,2013-02-23 04:29:00,
2013-02-22 20:34:00,41.6,23.9,25.24,WNW,300,25.0,-999.0,49,-99.99,,,-99.99,dwt +perl,2013-02-23 04:34:00,
2013-02-22 20:39:00,41.7,23.0,25.25,NW,311,21.0,-999.0,47,-99.99,,,-99.99,dwt +perl,2013-02-23 04:39:00,
2013-02-22 20:44:00,41.8,22.5,25.24,NW,315,19.0,-999.0,46,-99.99,,,-99.99,dwt +perl,2013-02-23 04:44:00,
2013-02-22 20:49:00,41.8,21.0,25.25,NW,307,16.0,-999.0,43,-99.99,,,-99.99,dwt +perl,2013-02-23 04:49:00,
2013-02-22 20:54:00,41.9,21.0,25.24,NW,312,14.0,-999.0,43,-99.99,,,-99.99,dwt +perl,2013-02-23 04:54:00,
2013-02-22 20:59:00,42.1,20.1,25.25,NW,305,13.0,-999.0,41,-99.99,,,-99.99,dwt +perl,2013-02-23 04:59:00,
2013-02-22 21:04:00,41.9,19.9,25.25,NW,307,18.0,-999.0,41,-99.99,,,-99.99,dwt +perl,2013-02-23 05:04:00,
2013-02-22 21:09:00,41.8,19.8,25.25,NW,308,19.0,-999.0,41,-99.99,,,-99.99,dwt +perl,2013-02-23 05:09:00,
2013-02-22 21:19:00,41.4,20.0,25.24,WNW,295,14.0,-999.0,42,-99.99,,,-99.99,dwt +perl,2013-02-23 05:19:00,
2013-02-22 21:24:00,41.0,21.3,25.24,WNW,303,21.0,-999.0,45,-99.99,,,-99.99,dwt +perl,2013-02-23 05:24:00,
2013-02-22 21:29:00,40.4,21.3,25.24,WNW,299,11.0,-999.0,46,-99.99,,,-99.99,dwt +perl,2013-02-23 05:29:00,
2013-02-22 21:34:00,40.3,21.2,25.25,WNW,285,11.0,-999.0,46,-99.99,,,-99.99,dwt +perl,2013-02-23 05:34:00,
2013-02-22 21:39:00,40.3,21.7,25.24,WNW,282,15.0,-999.0,47,-99.99,,,-99.99,dwt +perl,2013-02-23 05:39:00,
2013-02-22 21:44:00,40.3,22.7,25.24,WNW,289,14.0,-999.0,49,-99.99,,,-99.99,dwt +perl,2013-02-23 05:44:00,
2013-02-22 21:49:00,40.2,23.5,25.25,WNW,286,13.0,-999.0,51,-99.99,,,-99.99,dwt +perl,2013-02-23 05:49:00,
2013-02-22 21:54:00,40.5,25.6,25.24,NW,312,13.0,-999.0,55,-99.99,,,-99.99,dwt +perl,2013-02-23 05:54:00,
2013-02-22 21:59:00,41.0,26.9,25.24,WNW,292,13.0,-999.0,57,-99.99,,,-99.99,dwt +perl,2013-02-23 05:59:00,
2013-02-22 22:04:00,41.1,27.5,25.24,NW,312,12.0,-999.0,58,-99.99,,,-99.99,dwt +perl,2013-02-23 06:04:00,
2013-02-22 22:09:00,40.8,28.0,25.24,NNW,336,10.0,-999.0,60,-99.99,,,-99.99,dwt +perl,2013-02-23 06:09:00,
2013-02-22 22:14:00,40.4,28.0,25.24,WNW,285,13.0,-999.0,61,-99.99,,,-99.99,dwt +perl,2013-02-23 06:14:00,
2013-02-22 22:19:00,40.3,28.3,25.23,WNW,292,12.0,-999.0,62,-99.99,,,-99.99,dwt +perl,2013-02-23 06:19:00,
2013-02-22 22:29:00,41.0,29.0,25.23,WNW,287,11.0,-999.0,62,-99.99,,,-99.99,dwt +perl,2013-02-23 06:29:00,
2013-02-22 22:34:00,41.2,29.2,25.23,West,280,8.0,-999.0,62,-99.99,,,-99.99,dwt +perl,2013-02-23 06:34:00,
2013-02-22 22:39:00,41.4,29.4,25.23,WNW,290,8.0,-999.0,62,-99.99,,,-99.99,dwt +perl,2013-02-23 06:39:00,
2013-02-22 22:44:00,41.1,29.1,25.23,West,274,15.0,-999.0,62,-99.99,,,-99.99,dwt +perl,2013-02-23 06:44:00,
2013-02-22 22:49:00,40.9,29.3,25.23,West,267,11.0,-999.0,63,-99.99,,,-99.99,dwt +perl,2013-02-23 06:49:00,
2013-02-22 22:54:00,40.9,29.3,25.22,WNW,296,23.0,-999.0,63,-99.99,,,-99.99,dwt +perl,2013-02-23 06:54:00,
2013-02-22 22:59:00,41.0,29.4,25.23,WNW,289,14.0,-999.0,63,-99.99,,,-99.99,dwt +perl,2013-02-23 06:59:00,
2013-02-22 23:04:00,41.0,29.4,25.23,WNW,291,21.0,-999.0,63,-99.99,,,-99.99,dwt +perl,2013-02-23 07:04:00,
2013-02-22 23:09:00,40.9,29.7,25.23,WSW,253,11.0,-999.0,64,-99.99,,,-99.99,dwt +perl,2013-02-23 07:09:00,
2013-02-22 23:14:00,40.6,29.8,25.23,West,276,12.0,-999.0,65,-99.99,,,-99.99,dwt +perl,2013-02-23 07:14:00,
2013-02-22 23:19:00,40.6,29.8,25.22,WNW,286,13.0,-999.0,65,-99.99,,,-99.99,dwt +perl,2013-02-23 07:19:00,
2013-02-22 23:24:00,40.3,29.5,25.22,WNW,297,11.0,-999.0,65,-99.99,,,-99.99,dwt +perl,2013-02-23 07:24:00,
2013-02-22 23:29:00,39.9,28.7,25.23,West,267,13.0,-999.0,64,-99.99,,,-99.99,dwt +perl,2013-02-23 07:29:00,
2013-02-22 23:34:00,39.2,28.4,25.23,NW,321,16.0,-999.0,65,-99.99,,,-99.99,dwt +perl,2013-02-23 07:34:00,
2013-02-22 23:39:00,38.7,28.7,25.23,NW,314,11.0,-999.0,67,-99.99,,,-99.99,dwt +perl,2013-02-23 07:39:00,
2013-02-22 23:44:00,38.2,28.2,25.22,WNW,298,16.0,-999.0,67,-99.99,,,-99.99,dwt +perl,2013-02-23 07:44:00,
2013-02-22 23:49:00,37.8,28.9,25.22,WNW,290,14.0,-999.0,70,-99.99,,,-99.99,dwt +perl,2013-02-23 07:49:00,
2013-02-22 23:54:00,37.5,29.0,25.22,WSW,255,13.0,-999.0,71,-99.99,,,-99.99,dwt +perl,2013-02-23 07:54:00,
2013-02-22 23:59:00,37.5,29.6,25.22,WNW,301,24.0,-999.0,73,-99.99,,,-99.99,dwt +perl,2013-02-23 07:59:00,